#timestamp,LO_Frequency,Hit 
1503507615.8,286047001.3,N
1503507635.6,286047004.1,N
1503507655.5,286047003.9,N
1503507675.3,286047004.1,N
1503507695.1,286047006.0,N
1503507715.8,286047003.2,N
1503507735.7,286047000.9,N
1503507755.5,286047001.2,N
1503507775.3,286047001.0,N
1503507795.2,286047000.6,N
1503507815.9,286047000.0,N
1503507835.7,286047000.5,N
1503507855.6,286046998.2,N
1503507875.4,286046998.2,N
1503507895.2,286046997.5,N
1503507915.1,286046996.4,N
1503507916.0,286046996.4,N
1503507935.8,286046995.1,N
1503507955.6,286046995.5,N
1503507975.5,286046995.7,N
1503507995.3,286046995.1,N
1503508015.1,286046996.1,N
1503508035.9,286046997.8,N
1503508055.7,286046997.5,N
1503508075.5,286046995.1,N
1503508095.3,286046995.1,N
1503508115.2,286046995.3,N
1503508135.0,286046995.4,N
1503508135.9,286046995.4,N
1503508155.7,286046993.7,N
1503508175.6,286046994.8,N
1503508195.4,286046992.4,N
1503508215.2,286046991.1,N
1503508235.1,286046992.7,N
1503508236.0,286046992.7,N
1503508255.8,286046996.6,N
1503508275.6,286046998.6,N
1503508295.5,286047002.2,N
1503508315.3,286046999.8,N
1503508335.1,286047000.7,N
1503508355.9,286047000.4,N
1503508375.7,286047004.4,N
1503508395.5,286047001.5,N
1503508415.4,286047004.7,N
1503508435.2,286047005.1,N
1503508455.0,286047004.6,N
1503508455.9,286047004.6,N
1503508475.8,286047007.6,N
1503508495.6,286047010.2,N
1503508515.4,286047011.9,N
1503508535.2,286047011.3,N
1503508555.1,286047013.3,N
1503508556.0,286047013.3,N
1503508575.8,286047013.5,N
1503508595.6,286047011.2,N
1503508615.5,286047008.5,N
1503508635.3,286047010.1,N
1503508655.1,286047009.3,N
1503508675.9,286047012.2,N
1503508695.7,286047012.0,N
1503508715.5,286047011.5,N
1503508735.4,286047014.0,N
1503508755.2,286047013.4,N
1503508775.0,286047014.6,N
1503508775.9,286047014.6,N
1503508795.8,286047014.7,N
1503508815.6,286047017.1,P
1503508835.4,286047008.7,N
1503508855.3,286047009.1,N
1503508875.1,286047004.7,N
1503508876.0,286047004.7,N
1503508895.8,286047009.2,N
1503508915.7,286047005.5,N
1503508935.5,286047001.5,N
1503508955.3,286047004.2,N
1503508975.2,286047006.0,N
1503508995.9,286047007.3,N
1503509015.7,286047005.4,N
1503509035.6,286047003.5,N
1503509055.4,286047005.4,N
1503509075.2,286047005.1,N
1503509095.0,286047003.4,N
1503509095.9,286047003.4,N
1503509115.8,286047003.2,N
1503509135.6,286047005.8,N
1503509155.4,286047007.0,N
1503509175.3,286047002.9,N
1503509195.1,286047003.0,N
1503509215.8,286047001.9,N
1503509235.7,286047003.2,N
1503509255.5,286047005.1,N
1503509275.3,286047005.5,N
1503509295.2,286047002.9,N
1503509315.9,286047003.0,N
1503509335.7,286047005.8,N
1503509355.5,286047003.9,N
1503509375.4,286047002.2,N
1503509395.2,286047004.0,N
1503509415.0,286047002.2,N
1503509415.9,286047002.2,N
1503509435.8,286047000.2,N
1503509455.6,286047003.1,N
1503509475.5,286047008.7,P
1503509495.3,286047003.1,N
1503509515.1,286047004.0,N
1503509535.8,286047003.2,N
1503509555.7,286047004.3,N
1503509575.5,286047001.6,N
1503509595.3,286047001.5,N
1503509615.2,286047000.9,N
1503509635.9,286046998.0,N
1503509655.7,286046996.2,N
1503509675.6,286046996.1,N
1503509695.4,286046997.6,N
1503509715.2,286046996.3,N
1503509735.1,286046994.0,N
1503509736.0,286046994.0,N
1503509755.8,286046992.9,N
1503509775.6,286046990.3,N
1503509795.4,286046991.4,N
1503509815.3,286046990.0,N
1503509835.1,286046987.1,N
1503509855.8,286046989.3,N
1503509875.7,286046986.9,N
1503509895.5,286046988.2,N
1503509915.3,286046985.7,N
1503509935.2,286046985.4,N
1503509955.9,286046987.6,N
1503509975.7,286046987.6,N
1503509995.6,286046987.2,N
1503510015.4,286046986.9,N
1503510035.2,286046987.3,N
1503510055.1,286046989.7,N
1503510056.0,286046989.7,N
1503510075.8,286046987.5,N
1503510095.6,286046987.7,N
1503510115.4,286046989.9,N
1503510135.3,286046986.9,N
1503510155.1,286046989.6,N
1503510175.8,286046988.7,N
1503510195.7,286046991.1,N
1503510215.5,286046990.5,N
1503510235.3,286046987.1,P
1503510255.2,286046997.1,N
1503510275.0,286046993.4,N
1503510275.9,286046993.4,N
1503510295.7,286046991.8,N
1503510315.6,286046994.1,N
1503510335.4,286046993.5,N
1503510355.2,286046993.4,N
1503510375.1,286046994.0,N
1503510376.0,286046994.0,N
1503510395.8,286046999.0,N
1503510415.6,286047001.1,N
1503510435.5,286047001.5,N
1503510455.3,286047003.8,N
1503510475.1,286047003.1,N
1503510495.9,286047009.1,N
1503510515.7,286047010.4,N
1503510535.5,286047009.6,N
1503510555.4,286047011.8,N
1503510575.2,286047011.2,N
1503510595.0,286047011.6,N
1503510595.9,286047011.6,N
1503510615.7,286047012.4,N
1503510635.6,286047011.5,N
1503510655.4,286047013.6,N
1503510675.2,286047011.5,N
1503510695.1,286047014.5,N
1503510696.0,286047014.5,N
1503510715.8,286047016.2,N
1503510735.6,286047017.1,N
1503510755.5,286047013.8,N
1503510775.3,286047011.3,N
1503510795.1,286047009.4,N
1503510815.9,286047010.8,N
1503510835.7,286047008.9,N
1503510855.5,286047008.1,N
1503510875.4,286047008.4,N
1503510895.2,286047009.2,N
1503510915.0,286047009.2,N
1503510915.9,286047009.2,N
1503510935.8,286047010.7,N
1503510955.6,286047008.8,N
1503510975.4,286047005.6,N
1503510995.2,286047007.5,N
1503511015.1,286047005.9,N
1503511016.0,286047005.9,N
1503511035.8,286047005.4,N
1503511055.6,286047004.9,N
1503511075.5,286047004.6,N
1503511095.3,286047007.5,N
1503511115.1,286047008.3,N
1503511135.9,286047007.4,N
1503511155.7,286047006.6,N
1503511175.5,286047008.9,N
1503511195.4,286047010.4,P
